Retour au catalogue

STARLINK-5304

ActifCommunicationsVLEO
NORAD 54843·PAYLOAD·🇺🇸 United States

Lancé Dec 28, 2022 depuis Cape Canaveral Space Force Station

Loading…

Prochains Passages (prochaines 24 heures)

TLE

FraisSource: CelesTrak SupGP

Époque: Sep 15, 2026, 01:47 UTC

1 54843C 22177Z   26258.07479167  .00038192  00000+0  13834-2 0  2588
2 54843  43.0024 143.3969 0001567 276.9139  94.1586 15.27557458    13

Suivez STARLINK-5304 en temps réel avec AllMySat

Download on the App Store